Helicity
-4 11 11 -2 9 15 20 28 32 35 35 35 38 39 53 71 79 72 78 70 62 55 46 40 56 57 82 92 97 111 174 135 138 140 118 151 199 139 111 114 72 103 187 144 226
21 13 4 9 26 29 27 23 31 38 39 45 42 43 52 74 77 78 59 77 92 88 89 75 66 77 106 101 99 131 174 136 115 108 138 152 132 147 104 93 106 75 122 122 128
51 33 17 21 22 17 18 13 24 41 44 53 54 56 70 72 76 64 58 83 90 79 58 49 71 79 109 111 120 117 155 104 90 80 97 106 117 84 149 166 162 116 95 102 78
34 25 17 10 24 37 34 23 25 41 46 63 66 73 77 81 125 55 31 50 62 85 76 88 109 116 110 109 126 121 82 72 62 78 65 97 78 110 113 180 128 88 72 71 79
38 27 22 25 28 33 28 29 32 37 48 69 79 90 99 127 98 87 88 112 117 93 87 86 103 82 82 92 110 85 72 63 42 54 68 54 82 116 81 108 84 63 61 100 98
49 48 55 46 22 25 15 10 15 28 40 47 74 95 103 123 124 116 147 132 106 98 81 93 82 63 57 75 90 86 66 41 25 78 45 49 76 80 108 40 46 76 75 47 20
40 51 55 36 33 35 20 20 18 22 35 58 75 91 113 86 110 100 128 104 85 81 86 77 79 82 66 69 73 59 48 16 26 14 29 35 52 87 -9 51 69 77 87 83 41
30 26 22 22 25 32 34 36 32 41 50 58 77 113 89 98 111 131 144 121 83 63 62 51 51 69 71 84 79 49 31 95 53 33 8 67 42 19 -15 -24 -2 44 72 59 54
42 39 35 25 28 29 26 29 49 61 69 86 128 128 94 104 118 99 131 105 75 61 40 75 80 81 103 116 104 80 14 20 11 -9 31 57 68 -51 -7 11 133 147 172 185 165
55 22 6 18 22 26 20 27 63 109 119 110 130 137 89 121 107 88 78 103 97 67 82 85 73 87 99 107 51 41 13 34 62 46 72 105 158 219 105 144 162 140 206 195 210
28 15 19 14 21 21 73 69 91 96 82 111 129 160 167 158 143 134 141 167 145 110 93 63 70 70 72 65 122 112 82 66 103 128 103 87 105 188 81 110 135 129 194 224 269
31 31 30 29 11 62 90 97 110 98 83 79 108 136 181 141 179 131 138 131 125 99 84 80 60 69 64 96 87 79 56 58 54 31 34 73 97 144 32 35 38 103 155 187 252
29 36 23 15 32 94 96 124 86 98 155 131 111 125 88 95 95 83 99 78 94 86 81 75 65 72 48 68 74 66 90 87 97 118 55 -22 36 44 44 83 68 122 118 115 174
44 36 31 -7 104 87 137 89 90 104 219 184 101 72 44 53 47 51 79 76 77 49 37 31 25 18 48 50 84 58 109 48 23 48 31 140 112 -30 32 10 83 39 -8 6 13
77 60 48 79 99 118 75 60 68 117 297 157 100 36 55 66 46 42 62 104 74 63 78 40 54 33 57 82 102 35 58 45 52 112 101 115 147 278 34 -1 -1 8 -109 -104 -98
96 64 52 100 101 80 48 51 113 240 255 223 113 113 101 69 73 62 84 65 84 58 65 63 72 42 75 68 112 82 64 55 66 97 140 115 177 147 80 -47 -6 -36 -159 -138 -143
102 70 86 130 115 51 62 119 235 368 236 200 134 90 76 83 53 79 110 102 93 29 34 22 75 94 52 40 77 47 35 10 64 71 86 78 140 209 150 80 44 -75 -196 -207 -20
115 86 118 122 88 76 112 227 405 350 315 138 102 96 82 42 53 69 99 94 73 76 100 78 60 40 84 49 31 9 49 89 103 95 96 121 165 100 167 165 39 -86 -162 -31 -37
138 120 125 101 84 95 205 300 343 289 198 125 79 76 69 59 33 -19 3 72 61 48 66 41 45 81 81 51 37 62 58 51 84 86 89 84 145 124 171 56 -79 -100 -120 -127 -144
176 153 121 97 93 150 282 279 234 168 141 138 103 78 93 35 43 36 1 32 42 43 70 60 61 66 37 58 48 66 36 55 107 89 73 116 117 150 73 -97 -238 -176 -134 -126 -173
174 182 122 104 139 225 312 266 186 118 97 138 128 136 92 69 50 41 5 33 59 48 59 44 56 67 97 50 60 55 132 152 80 114 128 35 57 114 39 -77 -259 -237 -162 -113 -112
167 172 129 115 226 241 313 256 164 129 88 129 114 101 56 73 76 75 39 59 77 22 45 49 66 38 19 5 74 103 35 22 49 62 54 82 47 235 22 -170 -203 -214 -151 -95 -181
142 205 145 145 245 310 275 214 183 166 136 139 119 99 128 90 53 66 79 52 39 49 35 53 52 21 19 57 60 54 -5 2 15 18 20 32 104 30 -72 -115 -147 -210 -123 -123 -141
181 198 264 217 207 304 289 195 171 120 125 111 106 124 98 78 113 101 90 59 64 27 75 87 98 72 60 45 72 51 48 88 66 39 49 82 21 37 -73 -129 -170 -86 -117 -117 -92
205 237 310 277 272 253 255 226 168 159 127 72 80 70 76 101 37 84 116 97 17 31 71 50 77 44 46 53 63 58 40 74 65 80 79 49 21 17 -43 -84 -128 -94 -44 -0 -26
207 264 335 274 244 269 254 248 197 183 113 100 120 45 19 34 64 55 80 66 25 68 58 118 108 58 39 28 38 41 37 52 56 58 51 44 3 26 -13 -60 -57 -9 -19 33 54
184 238 294 289 298 301 283 263 152 125 126 101 66 24 29 31 63 24 18 18 132 106 109 137 119 69 24 39 29 48 37 74 54 37 43 39 37 24 42 7 -60 1 -10 3 29
Wind_Speed
52 51 53 52 50 50 50 50 48 48 48 50 50 51 52 53 55 42 40 38 33 36 40 38 43 44 40 40 38 35 54 65 65 61 60 53 62 59 59 80 77 67 73 69 72
56 55 55 56 55 54 55 53 50 49 49 48 48 50 51 55 50 45 37 29 33 37 39 42 46 44 44 43 41 43 53 55 48 49 61 63 74 76 77 82 93 96 84 85 82
61 60 59 58 58 53 54 54 49 48 49 48 49 52 55 53 52 43 30 30 32 35 37 39 42 45 48 46 42 40 49 46 51 50 59 69 80 71 77 93 78 83 77 74 84
62 62 62 60 59 61 59 55 51 48 46 46 47 50 54 43 58 35 26 27 32 36 39 44 47 49 49 46 41 48 48 52 52 54 67 74 71 81 81 86 75 77 80 85 92
63 63 63 59 56 57 55 51 49 44 43 45 46 51 47 47 45 29 25 27 34 38 42 45 48 44 48 45 47 51 53 55 59 72 80 80 86 89 98 90 83 83 86 88 85
64 63 64 63 59 57 56 53 47 43 40 41 43 47 46 51 37 26 22 29 33 36 40 40 39 38 43 46 47 45 57 67 68 76 74 82 85 71 79 71 69 74 82 84 88
64 63 63 62 60 57 52 48 47 44 41 38 38 40 43 41 35 20 20 29 29 34 38 36 36 37 36 42 40 46 64 64 55 53 65 66 85 68 65 64 69 74 85 93 102
63 65 67 68 67 61 54 50 45 41 39 35 34 37 44 33 30 20 23 29 28 30 35 34 35 36 38 42 46 49 51 60 49 56 56 58 97 55 54 57 70 79 87 95 98
64 65 65 66 66 64 57 52 44 39 34 33 37 37 48 34 30 19 20 30 27 33 37 34 37 39 41 45 55 51 67 65 70 50 56 53 95 64 54 71 90 89 88 89 96
57 59 61 64 62 61 55 49 39 40 37 34 35 42 36 39 30 22 20 20 32 35 40 36 37 40 42 41 62 59 66 61 67 58 57 66 57 71 89 96 104 104 96 92 93
54 61 60 54 51 48 48 46 47 41 35 37 42 43 41 36 30 31 22 26 35 38 41 35 42 43 39 37 50 61 69 75 67 65 76 68 54 108 102 98 98 94 86 82 83
59 63 60 58 42 45 45 44 43 37 45 38 39 41 40 31 36 25 15 31 34 42 39 44 56 51 44 43 52 59 74 77 70 57 58 80 71 97 107 72 63 65 73 81 82
58 66 65 61 54 46 47 45 45 45 42 48 38 39 37 25 34 25 14 29 37 42 43 52 47 44 51 61 61 61 66 75 74 75 67 72 85 63 66 76 70 64 81 90 97
49 67 70 75 48 47 42 48 47 43 51 45 39 37 29 26 35 24 13 28 35 45 49 58 55 57 58 62 53 71 60 62 69 71 75 58 93 81 78 80 69 84 106 124 130
46 56 64 62 48 48 46 48 42 41 72 37 36 33 30 28 36 30 22 33 46 43 45 55 56 58 59 56 42 60 54 61 66 73 82 61 52 58 83 88 78 103 120 129 160
41 49 60 53 51 46 50 47 42 54 63 44 38 41 41 35 38 33 30 34 44 48 47 59 54 56 53 49 42 55 68 72 67 59 66 51 38 58 72 81 100 108 119 142 162
42 49 51 48 53 51 49 47 62 63 50 50 44 43 52 53 46 37 36 34 39 53 53 55 51 41 39 49 43 50 64 71 65 56 61 41 47 46 71 75 88 111 126 135 151
42 49 48 47 47 49 48 57 71 57 55 43 47 51 54 49 48 41 44 49 42 45 62 61 60 40 29 41 57 57 47 59 71 67 76 72 60 53 52 79 92 111 123 122 136
43 46 48 47 47 46 55 69 63 58 51 52 51 43 46 47 47 49 52 60 51 27 50 54 55 42 36 47 49 50 53 54 72 77 75 56 54 47 80 90 105 117 122 123 129
47 49 47 45 46 49 59 63 55 46 47 43 47 41 46 62 64 58 56 50 51 44 37 57 72 52 51 47 42 51 60 56 50 65 70 60 68 60 82 104 109 115 118 121 126
49 53 45 46 47 54 66 60 60 44 44 43 41 40 46 55 52 58 60 58 49 47 43 54 54 56 54 55 61 50 45 49 51 54 67 81 64 58 92 103 112 110 108 115 117
49 59 47 47 60 57 64 61 58 49 42 38 38 37 39 49 56 57 60 54 46 51 58 46 56 69 68 62 40 40 40 52 58 61 66 71 80 56 95 110 111 105 103 104 82
53 51 47 48 69 71 61 63 55 51 46 39 37 33 40 47 55 54 57 53 49 53 53 54 54 74 67 45 39 46 58 59 63 65 67 74 72 97 108 106 104 100 98 95 83
54 63 54 55 53 64 74 70 64 48 43 35 36 35 37 43 43 50 54 53 57 63 59 59 58 62 77 72 67 76 79 74 63 71 81 79 110 103 100 102 100 99 93 88 80
55 58 56 70 68 64 63 63 66 65 42 42 37 33 45 43 57 48 51 59 73 67 56 53 69 69 75 77 73 74 77 78 74 70 74 89 89 90 93 92 91 93 93 89 86
58 61 54 61 58 63 66 67 65 59 55 48 33 44 50 41 38 35 35 68 69 62 58 53 70 67 81 71 69 76 74 73 66 66 65 72 74 82 86 90 87 88 85 82 78
52 50 54 61 63 68 67 67 68 65 45 41 46 44 47 44 50 55 31 28 37 64 62 56 61 71 85 62 66 71 49 48 52 51 53 64 71 83 89 89 76 78 77 77 74
Wind_Direction
343 347 344 344 347 342 337 334 333 332 331 329 329 329 326 324 322 324 317 319 322 323 321 323 323 320 321 316 315 311 290 284 284 282 285 289 284 285 287 277 277 276 275 277 282
337 339 340 339 345 339 332 329 330 331 329 329 329 328 326 323 321 316 323 329 326 323 319 317 315 317 310 307 306 297 290 289 293 291 289 291 287 286 285 280 275 273 275 274 276
345 339 336 341 345 346 339 330 330 331 329 329 328 325 322 321 316 313 322 325 328 326 323 321 319 315 307 306 301 297 289 296 299 298 298 293 288 289 285 279 282 279 279 277 274
349 345 343 344 343 340 336 333 331 330 332 334 332 331 326 328 307 320 323 325 325 324 319 319 317 309 303 299 301 294 297 298 301 299 297 293 295 289 283 283 287 285 283 281 277
358 356 353 354 354 351 348 343 337 340 338 335 334 331 329 320 315 326 325 322 321 319 318 313 311 308 300 301 300 294 298 301 299 296 294 294 290 288 286 288 286 284 281 280 279
358 358 357 357 356 351 345 341 341 341 343 339 336 332 328 318 333 329 330 324 321 320 317 316 313 312 305 300 298 303 298 297 300 298 300 294 293 296 296 293 288 284 282 280 280
357 356 356 356 356 355 354 351 344 342 341 342 341 337 328 319 334 345 337 325 325 320 316 319 317 309 310 305 306 304 298 303 307 313 309 309 294 296 299 298 290 286 283 282 278
0 356 353 352 351 353 353 351 349 346 343 345 346 340 326 334 334 329 330 324 325 323 318 316 312 310 303 303 304 307 307 303 316 321 319 319 292 308 311 304 298 296 290 286 282
2 360 357 356 354 352 352 348 348 348 350 349 340 334 323 338 328 321 319 316 319 315 313 318 314 306 302 299 298 304 299 303 306 321 319 318 300 307 313 306 297 297 295 289 285
12 9 6 2 360 357 357 356 357 353 350 350 344 333 331 329 334 331 326 322 313 309 308 308 309 305 301 297 293 299 301 304 307 316 316 313 274 269 300 297 292 293 294 292 290
14 9 7 10 8 7 7 3 358 356 353 335 330 325 331 333 334 320 317 313 307 303 298 304 301 296 300 296 302 302 301 301 308 311 309 311 287 271 296 297 294 301 302 299 295
10 9 9 9 13 15 15 14 9 358 343 334 315 313 322 329 317 315 317 306 301 294 294 298 294 300 300 299 299 300 299 302 308 316 313 312 277 271 291 305 311 310 312 308 302
12 8 8 10 12 19 13 11 5 359 346 343 340 333 330 318 316 308 302 311 300 296 292 291 301 311 304 298 296 296 299 302 305 310 313 315 312 317 310 309 314 315 317 314 307
19 6 4 0 24 18 18 8 4 5 351 352 353 349 355 344 327 320 295 312 307 301 297 295 298 299 303 299 297 295 303 302 306 310 311 325 312 316 303 310 314 320 321 312 308
18 12 9 12 18 18 12 6 10 10 348 4 359 3 357 337 334 332 318 306 302 304 303 299 300 301 301 304 303 301 308 307 307 305 306 312 312 319 313 305 318 322 317 318 314
19 15 9 17 17 16 7 8 11 360 351 359 359 346 336 333 327 330 320 306 309 303 298 296 302 302 302 308 307 309 308 308 307 307 304 311 307 320 325 315 317 325 322 328 322
16 13 13 17 14 13 13 14 1 358 5 2 357 347 326 321 320 316 310 308 305 303 304 310 309 306 306 310 318 318 314 306 303 303 305 323 316 310 322 323 327 325 324 334 333
15 13 17 18 16 16 17 8 359 2 359 357 350 336 323 322 318 315 309 302 302 299 298 300 304 316 321 312 311 312 313 306 299 300 301 307 310 326 336 329 328 331 329 342 347
16 16 16 18 20 21 13 2 1 1 2 357 354 352 340 329 315 316 309 303 307 302 300 301 305 323 322 322 319 312 305 311 301 298 299 306 312 320 320 322 322 327 330 334 339
16 14 16 19 21 18 10 3 3 6 1 4 357 355 340 322 313 308 305 310 307 311 309 307 300 311 315 325 328 315 312 305 306 302 301 306 310 315 319 316 319 318 328 336 336
18 14 20 19 17 12 5 4 359 4 6 2 355 347 340 331 321 313 303 309 310 308 311 311 308 306 314 313 311 318 314 316 310 304 302 304 309 328 319 316 316 318 320 330 336
18 11 17 15 7 10 4 3 0 358 3 0 2 359 348 336 324 316 308 305 318 315 305 313 307 299 304 310 317 317 317 317 305 301 303 303 304 330 318 318 318 314 318 324 319
14 11 20 18 5 2 2 357 356 359 6 5 357 354 350 340 331 322 314 309 315 315 309 311 303 297 302 315 324 309 313 311 306 304 299 299 303 309 315 313 317 314 318 320 320
15 9 13 16 13 4 359 0 3 5 356 360 352 353 351 343 336 326 314 316 312 309 308 305 296 295 291 297 303 299 300 302 304 298 297 299 298 304 314 314 318 318 316 319 321
16 11 12 3 4 1 359 357 356 359 13 2 2 359 351 348 338 333 322 313 307 308 306 302 292 296 294 296 298 296 297 297 299 301 297 300 307 312 317 315 319 319 322 321 325
12 9 11 359 3 2 3 1 359 5 357 351 356 350 341 333 329 284 310 316 308 310 310 303 295 298 293 298 298 296 296 297 298 302 305 308 311 320 319 314 314 319 321 321 319
16 16 10 4 5 1 3 3 356 356 6 358 346 340 340 339 336 324 313 293 305 308 305 300 300 300 291 301 301 296 303 305 308 312 317 316 318 319 317 315 315 316 319 320 319